Regional Weather Roundup
Issued by NWS

Home | Current Version | Previous Version | Graphics & Text | Print | Product List | Glossary On
Versions: 1 2 3 4 5 6 7 8 9 10 11 12 13 14 15 16 17 18 19 20 21 22 23 24 25 26 27 28 29 30 31 32 33 34 35 36 37 38 39 40 41 42 43 44 45 46 47 48 49 50
000
ASUS43 KTOP 011859
RWRKS

WEATHER ROUNDUP FOR KANSAS
NATIONAL WEATHER SERVICE GOODLAND KS
200 PM CDT WED APR 01 2015

NOTE:  "FAIR" INDICATES FEW OR NO CLOUDS BELOW 12,000 FEET WITH NO
SIGNIFICANT WEATHER AND/OR OBSTRUCTIONS TO VISIBILITY.

KSZ001>006-013>018-027>032-041>047-012000-
NORTHWEST KANSAS

CITY           SKY/WX    TMP DP  RH WIND       PRES   REMARKS
GOODLAND       PTSUNNY   83  26  12 N17       29.64F
HAYS           SUNNY     81  48  32 S24G33    29.65F
HILL CITY      SUNNY     83  44  25 S15G28    29.62F
RUSSELL        SUNNY     84  45  25 S26G37    29.64F
$$

KSZ061>065-074>080-084>089-012000-
SOUTHWEST KANSAS

CITY           SKY/WX    TMP DP  RH WIND       PRES   REMARKS
DODGE CITY     SUNNY     81  49  32 S18G26    29.69F
ELKHART          N/A     83  26  12 S9          N/A
GARDEN CITY    SUNNY     81  41  24 S15G26    29.66F
GREAT BEND     SUNNY     82  52  34 S25G35    29.66F
LIBERAL        SUNNY     84  43  23 S14G22    29.70F
$$

KSZ066>073-081>083-090>101-012000-
SOUTHEAST KANSAS

CITY           SKY/WX    TMP DP  RH WIND       PRES   REMARKS
CHANUTE        SUNNY     76  56  49 SE20      29.81F
COFFEYVILLE    MOSUNNY   74  59  59 S14       29.82F
HUTCHINSON     SUNNY     81  52  36 S21G33    29.72F
MEDICINE LODGE   N/A     83  53  35 S24G32    29.69F
NEWTON         SUNNY     79  52  38 S18G30    29.77F
PARSONS        SUNNY     75  59  57 S9G20     29.82F
WICHITA INTL   MOSUNNY   82  53  36 S21G31    29.73F
WICHITA JABRA  SUNNY     82  50  32 S20G29    29.74F
WINFIELD       MOSUNNY   81  59  47 S15G23    29.76F
$$

KSZ007>012-019>026-033>040-048>060-102>105-012000-
NORTHEAST KANSAS

CITY           SKY/WX    TMP DP  RH WIND       PRES   REMARKS
CONCORDIA      SUNNY     81  48  31 S21G33    29.68F
EMPORIA        SUNNY     78  51  38 S22G35    29.77F
LAWRENCE       MOSUNNY   80  56  43 S21G29    29.78F
MANHATTAN      MOSUNNY   83  49  30 S15G28    29.72F
OLATHE IND     PTSUNNY   77  58  51 SE20G26   29.81F
OLATHE EXE     PTSUNNY   75  58  55 S18G24    29.81F
SALINA         SUNNY     82  50  32 S21G30    29.71F
TOPEKA BILLARD MOSUNNY   79  49  34 S18G25    29.76F
TOPEKA FORBES  MOSUNNY   83  50  31 S23G30    29.75F
$$



USA.gov is the U.S. government's official web portal to all federal, state and local government web resources and services.